Location: Bambrugge
(50.9212°N, 3.9299°E)
Time: 12:43:28
(UTC+00:00)

Timation 1 Rocket - Pass Details

Date: 23 May 2024
Orbit: 898 x 907 km, 70.0° (Epoch: 18 June)

Event Time Altitude Azimuth Distance (km) Brightness Sun altitude
Exits shadow 02:32:21 11° 218° (SW) 2,473 5.9 -9.1°
Maximum altitude 02:38:02 74° 304° (WNW) 938 4.4 -8.6°
Drops below altitude 10° 02:44:00 10° 30° (NNE) 2,585 8.3 -7.9°
Sets 02:46:32 0° 32° (NNE) 3,530 9.5 -7.7°
